INTELSAT 33E (IS-33E) (41748 NORAD) Tracking and Keplerian Element Data

This shows tracking and keplerian element data for the satellite.

Feedback or suggestion? Click here.




ElementValue
Catalog41748
NameINTELSAT 33E (IS-33E)
Epoch Orbit874
Epoch Day349.59940955
Epoch Year2018
RAAN1.8704
Inclination0.0217
Eccentricity0.0002187
Argument of Perigee251.7316
Mean Anonmoly106.3887
Mean Motion1.00272933
Decay Rate6.1E-07
L11 41748U 16053B 18349.59940955 .00000061 00000-0 00000+0 0 9996
L22 41748 0.0217 1.8704 0002187 251.7316 106.3887 1.00272933 8748

Live tracking and technical data element details for INTELSAT 33E (IS-33E) (NORAD 41748). INTELSAT 33E (IS-33E) can be tracked NOW for your location showing map with azimuth and elevation plus other details from your city location.

Track the satellite on the map from your city or location and see movement details for azimuth, elevation, latitude, longitude, range, height, and movement on the map or in text.







IsCatalogInMostPopularTable: catalog: 41748, numindb: 123
Update: records affected: 1



GetName: 41748 INTELSAT 33E (IS-33E)

Hit Count: updated at: Sun, 16 Dec 2018 10:50:50 GMT